Das Wetter in  D-61279 Heinzenberg / Taunus





Wetter Minimum- & Maximum-Werte im Mrz 2011

Standort: Heinzenberg / Taunus - Höhe 297 m         8 24' 1" Ost 50 21' 51" Nord
(   3-stündige Aktualisierung    letzte Aktualisierung um 19:04 am 31.03.2011  )


Messgrösse

Minimum

Maximum

Durchschnitt

Temperatur West /
Luftfeuchte West
Anklicken für Monats-Diagramm

-5,5 C

04:43
07.03.2011

21 %

12:43
07.03.2011

18,9 C

16:30
25.03.2011

99 %

11:39
17.03.2011

Temp

6,0 C

Feuchte

70 %

Temperatur Ost /
Luftfeuchte Ost
Anklicken für Monats-Diagramm

-5,4 C

05:43
07.03.2011

--

--
--

18,9 C

13:54
23.03.2011

--

--
--

6,0 C

--

Luftdruck Anklicken für Monats-Diagramm

1005,0 hPa

04:09
17.03.2011

1041,3 hPa

08:54
23.03.2011

1022,8 hPa

Taupunkt

-14,3 C

12:48
07.03.2011

11,2 C

19:06
31.03.2011

0,2 C

Windchill
( gefühlte Temperatur )

-14,1 C

08:03
07.03.2011

18,8 C

16:24
24.03.2011

3,7 C

Windgeschwindigkeit /
Windrichtung
Anklicken für Monats-Diagramm

---

52,0 km/h / W-SW

16:00
10.03.2011

8,2 km/h
SO

Helligkeit /
Sonnenschein
Anklicken für Monats-Diagramm
Anklicken für Monats-Diagramm

Sonnenschein:

185:57 Stunden

Max: 10:40 Std am
20.03.2011

85,9 klux

12:06
26.03.2011

27,0 klux

Solarstrahlung Anklicken für Monats-Diagramm

---

588 W/m

12:06
26.03.2011

201 W/m

Regenmenge
    Mrz 2011
Anklicken für Monats-Diagramm

Insgesamt 16,1 l/m

in 32:26 Stunden
an 9 Tagen

7,0 l/m

00:01
19.03.2011

Gesamtmenge

16,1 l/m

Regen-Tage
    Mrz 2011
Anklicken für Monats-Diagramm

>   0 mm/Tag

>   2 mm/Tag

>   5 mm/Tag

> 10 mm/Tag

> 20 mm/Tag

9 Tage     
3 Tage     
  1 Tag     
0 Tage     
0 Tage     

Eisige Tage Mrz 2011 / 2010

Tmin ≤ -10C     

0 Tage

/

  1 Tag

Eistage Mrz 2011 / 2010

Tmax <     0C     

0 Tage

/

  1 Tag

Frosttage Mrz 2011 / 2010

Tmin ≤     0C     

15 Tage

/

13 Tage

Kalte Tage Mrz 2011 / 2010

Tmax <   10C     

7 Tage

/

16 Tage

Warme Tage Mrz 2011 / 2010

Tmax ≥   20C     

0 Tage

/

  1 Tag

Sommertage Mrz 2011 / 2010

Tmax ≥   25C     

0 Tage

/

0 Tage

Heisse Tage Mrz 2011 / 2010

Tmax ≥   30C     

0 Tage

/

0 Tage


Monatsdiagramm Mrz 2011

Die Kurven zeigen den Durchschnittswert des jeweiligen Tages an


Wetter-Monatsübersicht Mrz 2011
Datum
  Temperatur
   Luftdruck
   Wind
  Regen
   Luftfeuchte
   Helligkeit

Sonnen-
schein


Temp.

Min.
Temp.

Max.
Temp.


Luftdruck

Min.
Luftdruck

Max.
Luftdruck

-Geschw.
Haupt-Richtg.

Max.
Wind

Menge /
Dauer


Feuchte

Min.
Feuchte

Max.
Feuchte


Helligkeit

Max.
Helligkeit

1.
Mrz
3,0 C-2,2 C
06:13
10,3 C
15:18
1031,7 hPa1029,6 hPa
00:03
1034,5 hPa
23:49
8,0 km/h
SO
31,7 km/h
14:53  
---
79 %58 %
15:28
96 %
07:43
29,9 klux56,2 klux
12:53
8:20 Std 
2.
Mrz
3,0 C-1,6 C
07:24
9,5 C
15:54
1031,9 hPa1029,4 hPa
15:54
1034,6 hPa
00:14
11,5 km/h
O-NO
38,4 km/h
13:19  
---
58 %32 %
15:14
79 %
07:09
32,1 klux56,2 klux
12:24
9:25 Std 
3.
Mrz
1,3 C-3,4 C
07:19
6,8 C
16:19
1030,6 hPa1028,7 hPa
16:19
1032,1 hPa
08:30
6,8 km/h
NO
30,8 km/h
16:09  
---
59 %41 %
12:49
75 %
07:59
29,8 klux55,5 klux
12:19
8:30 Std 
4.
Mrz
1,8 C-4,3 C
07:00
11,0 C
15:55
1030,7 hPa1027,3 hPa
17:50
1033,3 hPa
07:00
2,7 km/h
SO
13,2 km/h
13:15  
---
67 %41 %
16:00
84 %
07:35
32,1 klux56,8 klux
12:35
9:25 Std 
5.
Mrz
1,5 C-4,4 C
06:46
10,1 C
14:26
1026,5 hPa1023,1 hPa
16:26
1028,9 hPa
01:36
4,1 km/h
SO
20,6 km/h
16:31  
---
72 %33 %
12:41
92 %
08:46
29,4 klux58,4 klux
12:31
7:25 Std 
6.
Mrz
0,1 C-4,5 C
05:22
7,2 C
17:07
1029,6 hPa1027,8 hPa
00:02
1034,1 hPa
23:48
3,6 km/h
NO
21,6 km/h
16:32  
---
71 %40 %
17:47
92 %
06:12
25,5 klux81,8 klux
12:32
5:10 Std 
7.
Mrz
1,0 C-5,5 C
04:43
8,2 C
17:13
1033,5 hPa1031,6 hPa
17:13
1035,4 hPa
06:38
10,0 km/h
O-SO
34,8 km/h
14:03  
---
48 %21 %
12:43
79 %
04:48
35,2 klux59,9 klux
12:13
9:50 Std 
8.
Mrz
3,8 C-1,8 C
06:23
11,2 C
16:13
1026,4 hPa1021,6 hPa
22:54
1031,7 hPa
00:43
11,4 km/h
O-SO
25,8 km/h
14:33  
---
45 %32 %
12:08
70 %
22:13
33,6 klux57,9 klux
11:58
9:40 Std 
9.
Mrz
6,8 C1,9 C
03:19
11,5 C
11:49
1018,3 hPa1015,8 hPa
15:09
1021,9 hPa
00:44
17,4 km/h
W-SW
48,5 km/h
12:29  
---
40 Minuten
70 %54 %
11:49
86 %
21:04
22,2 klux71,7 klux
12:14
3:20 Std 
10.
Mrz
6,6 C3,8 C
07:15
10,3 C
16:00
1016,7 hPa1014,8 hPa
16:00
1018,6 hPa
02:30
27,1 km/h
W-SW
52,0 km/h
16:00  
---
72 %53 %
15:15
84 %
07:50
21,6 klux73,5 klux
13:15
2:56 Std 
11.
Mrz
7,6 C1,7 C
23:56
10,0 C
14:36
1017,1 hPa1015,1 hPa
02:01
1018,8 hPa
22:36
22,0 km/h
W
50,1 km/h
04:11  
---
69 %58 %
14:41
82 %
05:21
11,5 klux54,0 klux
11:06
10 Min 
12.
Mrz
7,2 C-1,2 C
05:41
15,6 C
15:41
1011,0 hPa1005,2 hPa
18:01
1018,1 hPa
01:46
8,7 km/h
SO
27,6 km/h
15:56  
---
30 Minuten
69 %41 %
16:11
95 %
08:41
30,8 klux70,6 klux
13:36
7:45 Std 
13.
Mrz
10,0 C7,0 C
07:37
13,2 C
15:22
1006,9 hPa1005,1 hPa
15:32
1009,8 hPa
23:53
5,8 km/h
W-SW
26,4 km/h
11:12  
0,5 l/m
3:51 Stunden
74 %61 %
15:27
91 %
08:37
15,8 klux56,8 klux
10:52
30 Min 
14.
Mrz
8,8 C6,3 C
23:13
12,0 C
12:53
1015,0 hPa1009,8 hPa
00:03
1018,4 hPa
23:13
1,0 km/h
SO
12,3 km/h
10:48  
0,8 l/m
4:35 Stunden
91 %84 %
12:18
98 %
08:53
9,5 klux36,6 klux
11:38
--- 
15.
Mrz
11,1 C5,9 C
03:23
18,7 C
15:13
1015,8 hPa1011,7 hPa
16:53
1018,4 hPa
03:23
7,6 km/h
O
25,3 km/h
19:08  
---
75 %43 %
15:03
97 %
06:23
34,5 klux65,6 klux
13:28
7:30 Std 
16.
Mrz
7,0 C5,2 C
21:24
9,6 C
11:24
1009,9 hPa1006,1 hPa
23:54
1015,1 hPa
00:09
11,4 km/h
NO
26,6 km/h
16:04  
---
84 %76 %
11:29
89 %
22:19
12,3 klux42,8 klux
11:14
--- 
17.
Mrz
5,6 C5,1 C
00:44
6,5 C
12:14
1008,2 hPa1005,0 hPa
04:09
1015,4 hPa
23:10
9,3 km/h
W-NW
34,8 km/h
23:00  
2,9 l/m
5:49 Stunden
97 %89 %
00:04
99 %
11:39
2,7 klux7,8 klux
13:44
--- 
18.
Mrz
4,6 C3,5 C
07:25
6,0 C
15:25
1021,9 hPa1015,4 hPa
00:00
1025,9 hPa
23:36
14,0 km/h
W-NW
34,4 km/h
01:05  
0,2 l/m
3:06 Stunden
91 %81 %
14:00
98 %
00:00
7,19 klux26,00 klux
13:20
--- 
19.
Mrz
5,2 C-1,6 C
23:46
11,3 C
16:26
1030,6 hPa1025,9 hPa
00:01
1036,0 hPa
23:21
6,0 km/h
NO
29,2 km/h
13:21  
7,0 l/m
7:50 Stunden
73 %31 %
16:26
98 %
03:26
34,8 klux77,3 klux
12:06
8:20 Std 
20.
Mrz
3,1 C-4,5 C
06:06
13,0 C
16:11
1034,7 hPa1032,0 hPa
16:11
1036,4 hPa
06:06
3,3 km/h
SO
14,7 km/h
16:01  
---
61 %25 %
17:31
90 %
07:46
38,4 klux71,4 klux
12:06
10:40 Std 
21.
Mrz
4,7 C-3,6 C
06:22
15,4 C
16:47
1035,8 hPa1033,8 hPa
16:47
1038,3 hPa
07:57
3,3 km/h
SO
22,8 km/h
17:17  
---
59 %29 %
16:32
85 %
07:17
37,8 klux66,9 klux
12:32
10:00 Std 
22.
Mrz
6,9 C-2,2 C
06:33
18,2 C
16:08
1036,9 hPa1034,5 hPa
16:08
1039,5 hPa
23:59
4,7 km/h
SO
15,0 km/h
13:58  
---
60 %23 %
15:33
88 %
06:43
38,1 klux66,8 klux
12:33
10:30 Std 
23.
Mrz
8,3 C-0,4 C
06:29
17,7 C
16:04
1038,5 hPa1035,6 hPa
16:04
1041,3 hPa
08:54
5,6 km/h
SO
19,0 km/h
14:44  
---
69 %41 %
12:19
93 %
08:19
37,9 klux67,2 klux
12:19
9:55 Std 
24.
Mrz
8,9 C0,5 C
06:34
18,8 C
16:24
1034,3 hPa1028,9 hPa
23:15
1038,4 hPa
01:14
4,0 km/h
SO
15,9 km/h
10:49  
---
63 %28 %
13:34
93 %
07:54
38,7 klux68,7 klux
12:34
10:10 Std 
25.
Mrz
9,5 C0,3 C
06:35
18,9 C
16:30
1020,0 hPa1013,7 hPa
16:30
1029,1 hPa
00:30
6,5 km/h
SO
26,4 km/h
14:45  
---
67 %38 %
16:00
93 %
08:00
35,8 klux69,0 klux
12:55
8:00 Std 
26.
Mrz
7,2 C4,3 C
23:51
11,1 C
14:06
1016,2 hPa1015,1 hPa
00:01
1017,6 hPa
23:51
3,4 km/h
NW
16,5 km/h
14:36  
---
70 %47 %
14:36
87 %
06:51
21,2 klux85,9 klux
12:06
1:55 Std 
27.
Mrz
7,2 C2,1 C
04:56
14,1 C
15:17
1014,5 hPa1011,2 hPa
16:47
1017,8 hPa
03:26
2,4 km/h
SO
16,3 km/h
17:02  
---
70 %47 %
15:12
88 %
06:02
27,0 klux83,2 klux
13:22
2:45 Std 
28.
Mrz
7,5 C1,8 C
06:38
15,8 C
17:08
1013,9 hPa1012,5 hPa
00:03
1017,8 hPa
23:59
5,9 km/h
NW
25,4 km/h
13:08  
---
63 %29 %
16:53
90 %
07:08
37,8 klux77,7 klux
12:58
9:41 Std 
29.
Mrz
7,4 C-2,0 C
06:59
18,6 C
17:24
1016,1 hPa1012,7 hPa
17:24
1019,1 hPa
02:04
4,8 km/h
SO
24,6 km/h
16:29  
---
60 %29 %
17:19
87 %
08:44
38,6 klux68,9 klux
13:09
10:10 Std 
30.
Mrz
8,1 C0,3 C
07:45
16,8 C
16:15
1015,8 hPa1014,6 hPa
02:40
1017,0 hPa
08:10
8,0 km/h
W-SW
32,3 km/h
15:20  
---
30 Minuten
72 %47 %
14:45
88 %
08:10
26,5 klux77,7 klux
12:00
3:55 Std 
31.
Mrz
10,5 C8,8 C
03:46
12,7 C
23:01
1017,3 hPa1016,6 hPa
19:36
1019,6 hPa
23:46
15,5 km/h
W-SW
29,1 km/h
23:16  
4,9 l/m
5:35 Stunden
90 %79 %
00:01
96 %
16:41
9,0 klux21,1 klux
14:51
--- 



Mrz
2011

Temperatur

  

Luftdruck

  

Wind

  

Regen

  

Luftfeuchte

  

Helligkeit

Sonnen-
schein

Min

Max

Min

Max

Max

Max

Min

Max

Max

Max

6,0 C

-5,5 C

04:43 Uhr
07.03.2011

18,9 C

16:30 Uhr
25.03.2011

1022,8 hPa

1005,0 hPa

04:09 Uhr
17.03.2011

1041,3 hPa

08:54 Uhr
23.03.2011

8,2 km/h

SO

52,0 km/h

16:00 Uhr
10.03.2011

7,0 l/m

7:50 Stunden
19.03.2011

70 %

21 %

12:43 Uhr
07.03.2011

99 %

11:39 Uhr
17.03.2011

27,0 klux

85,9 klux

12:06 Uhr
26.03.2011

10:40 Std

am
20.03.2011

Gesamt

Gesamt

16,1 l/m

9 Tage
32:26 h

185:57 Std


Wetter-Diagramme Mrz 2011     Heinzenberg / Taunus   
TemperaturLuftfeuchte
SolarstrahlungLuftdruck
HelligkeitSonnenschein
RegenmengeRegendauer
Wind-GeschwindigkeitWind-Richtung